Temp_Advection
nan nan nan nan nan nan nan nan nan nan nan nan nan nan nan nan nan nan nan nan nan nan nan nan nan nan nan nan nan nan nan nan nan nan nan nan nan nan nan nan nan nan nan
nan 1 0 -0 -0 -0 0 1 -0 -0 -1 -0 0 0 -0 -1 0 1 0 -0 -0 -0 0 -0 -0 0 0 0 1 1 0 1 1 -0 -0 1 1 1 -0 -1 0 1 nan
nan 0 0 0 0 -1 -1 -0 -0 -1 -1 0 0 -0 -1 -0 0 -0 -1 -0 0 1 0 -1 -0 1 0 1 1 1 1 0 0 0 1 1 -1 0 1 -0 0 2 nan
nan 0 -0 -0 -0 1 1 -1 -0 0 -0 -0 -0 -1 -0 -0 -0 -1 -0 1 1 1 -0 -1 0 0 -0 1 1 1 1 0 0 1 1 1 -1 -1 1 1 1 1 nan
nan -0 0 0 1 0 0 1 1 -1 -1 0 -1 -0 -0 -0 -0 -0 0 1 1 0 -1 -1 0 1 1 1 0 0 1 1 1 1 0 0 0 -0 -0 1 1 1 nan
nan -0 -0 0 0 0 1 1 0 0 2 1 -0 1 -0 -1 -1 1 1 1 0 -0 -0 1 1 0 0 0 0 0 0 0 1 1 1 0 -0 0 1 2 3 3 nan
nan -0 -1 -0 -1 0 2 1 0 0 1 1 1 0 -0 0 0 0 -0 0 -0 -0 0 0 -0 -0 0 1 1 1 0 0 0 1 1 1 1 1 4 4 2 2 nan
nan -0 -0 0 -0 -1 0 1 0 2 1 0 0 1 1 0 -0 -0 0 -0 -0 -0 -0 0 0 1 1 1 0 0 0 1 1 1 3 4 4 3 2 1 2 2 nan
nan -0 -0 -1 -0 0 -1 -2 0 2 1 1 1 1 0 0 0 0 0 0 0 0 0 1 0 0 1 1 0 0 1 2 4 5 5 4 3 2 2 1 1 1 nan
nan -2 -1 -1 -2 -1 -0 -0 -2 -0 2 3 1 0 0 0 1 0 0 0 0 0 1 1 1 1 1 1 0 3 8 7 3 1 1 1 1 1 0 0 0 0 nan
nan -2 -2 -2 -2 -2 -3 -1 1 -0 1 2 1 1 0 0 0 0 0 1 0 0 1 2 2 2 3 4 6 5 4 2 1 1 0 0 0 0 0 0 0 0 nan
nan -4 -4 -3 -3 -2 -3 -2 -1 0 1 2 2 2 2 2 1 1 1 1 1 3 5 6 5 4 4 3 3 3 2 1 1 1 0 0 -0 -0 -0 -0 -0 -0 nan
nan -4 -4 -4 -3 -2 -2 -2 -1 0 2 3 4 3 4 3 3 3 3 5 5 6 6 6 3 2 2 2 1 1 1 0 0 -0 -0 0 0 0 0 0 0 0 nan
nan -1 -2 -3 -3 -2 -1 -1 -0 1 2 3 4 6 4 4 3 3 4 5 5 3 1 0 1 2 -0 -0 0 1 0 0 -0 -0 -0 0 0 0 0 -0 -0 -0 nan
nan -1 -1 -1 -1 -2 -1 -1 -1 -1 0 1 1 2 2 1 0 1 1 1 1 1 0 0 -0 0 1 0 0 -0 -0 -0 -0 -0 -0 -0 -0 -0 -0 -0 -0 -0 nan
nan -1 -1 -1 -1 0 0 -1 -1 1 1 0 -0 -1 -1 1 1 1 0 1 1 0 0 -0 0 -0 -0 0 0 0 -0 -0 -0 -0 -0 -0 -0 -0 -0 -0 -0 -0 nan
nan -0 -0 -1 -1 -1 -0 1 2 1 -1 -1 0 0 -0 0 1 1 1 0 0 0 -0 -1 -0 0 -0 -0 -0 -0 -0 -0 -0 -0 -0 -0 -0 -0 -0 -0 -0 -0 nan
nan 0 -0 -1 -0 -0 -0 -1 -0 0 -0 1 1 0 -0 -0 -0 1 1 0 -0 -0 -0 -1 -1 -0 -0 -0 -0 -0 -0 -0 -0 -0 -0 -0 -0 -0 -0 -0 -0 -0 nan
nan -0 0 -0 -0 -0 -0 -1 -1 -1 -1 -0 0 0 0 1 0 0 0 -0 -1 -1 -0 -0 -0 -0 -0 -0 -0 -0 -0 -0 -0 -0 -0 -0 -0 -0 -0 -0 -0 -0 nan
nan -0 -0 -0 -0 -0 -0 -0 -0 -0 -0 -0 -0 -0 0 0 -0 -1 -0 -0 -0 -1 -0 -0 -0 0 -0 -0 -0 -0 -0 0 -0 -0 -0 -0 -0 -0 -0 -0 -0 -0 nan
nan -0 -0 -0 -1 -1 -0 -0 -0 -0 -0 -1 -0 -0 0 -0 -0 -0 -0 -0 -0 -0 -0 -0 -0 -0 -0 -0 -0 -0 -0 0 -0 -0 -0 -0 -0 0 0 0 0 -0 nan
nan -0 -0 -0 -0 -0 -0 -0 -0 -0 -0 -0 -0 -0 -0 -0 -0 -0 -0 -0 -0 0 0 0 -0 -0 -0 -0 -0 -0 -0 -0 -0 -0 -0 -0 -0 -0 0 0 0 0 nan
nan -0 -0 -0 -0 -0 -0 -0 -0 -0 -0 -0 -0 -0 -0 -0 -0 -0 -0 -0 -0 -0 0 0 -0 -0 -0 -0 -0 -0 -0 -0 -0 -0 -0 0 0 -0 0 0 0 -0 nan
nan -0 -0 -0 -0 -0 -0 -0 -0 -0 -0 -0 -0 -0 -0 -0 -0 -0 -0 -0 -0 -0 -0 -0 -0 -0 -0 -0 -0 -0 -0 -0 -0 -0 -0 -0 0 0 0 0 0 0 nan
nan -0 -0 -0 -0 -0 -0 -0 -0 -0 -0 -0 -0 -0 -0 -0 -0 -0 -0 -0 -0 -0 -0 -0 -0 -0 -0 -0 -0 0 0 0 0 -0 -0 -0 -0 -0 -0 0 0 0 nan
nan nan nan nan nan nan nan nan nan nan nan nan nan nan nan nan nan nan nan nan nan nan nan nan nan nan nan nan nan nan nan nan nan nan nan nan nan nan nan nan nan nan nan
Wind_Speed
23 34 38 39 41 41 42 41 43 46 49 55 57 55 57 57 54 48 50 50 48 47 47 47 47 45 45 44 43 44 43 44 49 49 49 47 45 47 47 44 36 32 30
22 25 31 37 41 42 44 44 43 45 44 46 54 60 58 60 60 61 56 55 54 52 53 49 50 49 49 48 49 50 50 49 50 54 49 49 46 48 47 46 40 38 36
26 25 27 31 35 44 46 46 44 45 46 47 48 55 57 60 60 60 63 60 58 57 55 54 55 52 53 53 53 52 51 50 51 53 54 51 52 47 48 46 46 44 40
30 29 31 32 33 35 40 45 46 46 47 47 50 50 52 56 56 57 64 66 63 63 63 62 60 57 58 56 54 54 53 52 54 55 54 48 50 46 47 50 52 50 46
33 29 35 34 34 35 36 39 44 48 51 50 48 50 51 51 54 55 57 59 61 61 62 62 62 60 57 55 53 54 55 55 54 52 50 48 52 53 52 50 51 49 44
23 42 37 37 39 39 39 40 40 44 47 52 55 56 56 57 57 56 56 56 57 57 58 57 56 55 55 55 54 54 56 57 56 51 51 50 55 54 53 54 50 45 37
8 11 31 43 44 43 44 44 43 45 45 48 52 54 58 60 59 56 55 54 56 56 55 56 56 57 54 51 50 51 52 52 54 54 56 52 52 55 51 44 38 35 32
18 15 9 9 30 45 48 49 50 49 49 49 50 52 54 58 58 58 57 56 55 57 58 58 57 54 50 47 48 49 52 54 56 56 58 52 42 34 30 27 27 27 25
24 24 22 24 16 16 31 51 51 52 53 55 54 53 54 56 56 57 55 54 53 55 57 57 56 54 53 50 47 48 53 53 51 47 40 33 24 20 20 19 21 18 16
26 26 27 30 32 30 25 29 52 54 54 53 52 53 54 54 54 54 56 53 53 53 54 55 53 53 52 50 49 49 46 32 17 12 13 12 11 12 9 9 7 5 7
25 26 27 31 35 34 31 29 33 51 52 50 49 50 50 49 49 49 47 48 47 48 49 49 48 48 48 48 39 28 24 21 18 16 11 9 9 6 4 3 4 6 8
25 24 28 28 33 35 30 26 24 36 46 47 48 48 46 42 44 44 42 38 44 45 44 38 32 28 24 19 20 21 22 18 16 17 13 10 4 3 2 3 5 7 9
30 29 27 26 24 26 26 22 17 22 28 36 38 35 31 26 25 30 37 36 34 33 29 28 24 21 23 26 26 20 23 18 11 10 10 8 3 1 3 5 7 8 10
27 25 23 23 22 17 14 10 9 10 16 19 21 28 24 22 17 17 22 23 27 24 29 27 25 31 27 21 20 17 16 14 10 8 5 5 3 2 4 6 8 10 11
21 20 18 18 17 15 12 12 9 6 2 9 11 12 17 17 20 18 22 26 30 33 28 29 26 17 24 20 15 13 12 10 9 6 3 1 2 3 4 6 7 10 11
17 18 18 19 22 26 25 25 27 26 23 22 26 29 36 30 35 32 32 29 28 24 21 24 25 22 14 15 13 12 10 8 9 7 3 3 4 5 7 8 9 10 11
16 16 17 19 24 29 32 35 38 35 36 39 37 33 32 25 26 28 24 23 21 17 16 20 17 18 16 12 11 9 9 8 6 4 6 6 6 7 8 9 10 10 11
19 19 21 22 23 25 28 30 31 33 34 34 31 27 23 25 18 20 18 17 21 17 16 18 14 14 12 11 8 7 6 4 5 5 4 5 6 7 7 7 8 10 12
22 21 20 20 20 21 23 25 27 26 26 25 23 23 18 15 14 15 12 16 18 16 13 14 11 9 7 6 4 4 4 5 4 3 4 5 6 5 5 5 6 8 10
17 17 17 17 16 15 17 19 19 20 19 20 20 18 13 9 12 14 14 16 14 12 10 7 7 5 5 4 4 2 2 2 2 3 4 5 6 5 5 5 7 10 12
14 13 12 14 16 16 15 16 16 16 17 17 17 13 11 9 11 11 12 12 10 7 6 5 5 4 3 2 1 1 2 2 2 4 5 6 6 5 5 6 8 10 11
10 11 12 13 12 13 13 12 12 12 12 13 12 10 8 9 10 10 10 10 8 5 3 2 2 3 2 2 2 2 3 5 6 6 6 7 7 7 8 8 9 9 9
9 10 10 11 12 11 11 11 10 10 10 10 9 8 7 9 9 9 8 8 7 5 3 2 2 1 2 2 2 4 6 6 5 6 8 9 9 9 9 9 9 7 5
8 9 10 10 9 10 10 10 10 10 10 10 10 9 8 8 8 8 6 4 3 2 2 3 3 4 3 3 5 5 5 6 8 9 9 9 9 9 9 8 5 4 8
7 8 9 9 9 8 7 7 7 6 6 5 5 3 3 5 6 6 5 3 2 3 5 6 8 7 7 7 6 6 7 8 9 10 10 10 9 9 9 8 8 9 10
8 8 7 6 5 5 5 4 3 3 2 2 1 2 1 2 5 5 5 6 7 6 7 7 8 9 9 9 8 8 9 10 10 10 10 9 8 8 9 8 6 7 9
Wind_Direction
224 218 217 220 221 222 224 226 225 226 228 228 228 226 226 229 231 234 238 242 243 243 244 247 250 252 254 256 258 258 259 262 261 265 268 271 270 273 275 274 276 267 266
238 228 225 225 222 225 227 230 231 230 231 230 230 232 236 235 234 238 239 241 245 247 248 247 252 255 257 259 260 260 263 260 262 265 269 273 274 276 273 271 272 263 265
240 238 235 235 232 227 228 231 231 234 234 233 233 234 238 238 239 242 239 242 244 246 245 252 257 258 259 261 260 261 261 264 265 267 267 267 270 268 275 274 272 264 268
240 244 246 245 245 244 238 232 234 235 237 236 237 238 237 239 242 241 240 241 245 248 251 254 259 259 261 262 261 263 263 262 265 267 270 267 263 272 272 274 274 271 267
235 248 252 254 253 251 249 246 240 240 238 239 241 241 241 241 241 242 244 245 247 250 253 256 258 259 260 260 258 261 261 262 262 260 260 256 261 270 271 275 271 269 263
255 242 246 253 255 255 255 251 249 249 245 241 241 241 241 244 244 243 245 247 249 251 253 253 253 254 256 258 260 261 264 264 263 258 262 257 264 265 267 269 262 253 245
328 11 259 245 247 255 257 253 251 251 250 247 245 244 244 244 246 247 246 244 244 245 247 248 251 255 259 261 260 256 255 256 262 265 265 256 255 260 263 259 258 250 240
323 309 311 256 249 250 248 247 253 253 249 248 249 248 247 248 248 248 247 243 244 248 253 255 256 258 259 258 258 257 258 259 260 259 251 247 246 251 250 249 238 229 217
324 318 308 299 281 264 257 253 251 250 246 245 248 248 248 252 252 251 247 245 248 247 250 252 254 255 256 255 255 254 254 255 251 246 239 236 235 229 220 216 206 210 208
333 321 314 302 290 284 284 254 256 251 250 245 239 241 245 245 250 249 245 244 246 245 247 249 250 252 250 251 250 248 237 221 205 206 209 192 195 195 193 200 211 247 260
333 326 319 311 304 292 287 279 253 249 242 240 238 239 241 244 247 247 247 245 243 243 244 246 244 243 244 244 240 229 225 196 175 174 161 141 153 167 173 261 276 275 280
346 334 324 318 313 303 293 288 271 235 238 236 233 232 235 238 243 246 247 242 242 237 230 227 228 229 221 205 190 179 161 147 146 139 137 126 100 65 27 334 319 305 292
348 346 338 326 316 310 303 294 283 250 231 224 221 219 218 218 222 226 233 227 218 211 198 188 170 160 148 149 141 135 137 123 112 108 111 115 129 228 279 271 274 275 276
354 354 352 345 333 321 316 307 280 243 225 208 197 198 189 191 180 172 175 181 187 165 142 125 124 134 127 114 117 125 110 117 111 106 112 126 152 232 280 294 296 297 295
6 9 15 24 29 27 36 49 50 47 204 180 154 138 144 123 103 120 119 119 117 121 124 121 124 117 118 124 117 110 98 93 98 96 96 55 1 328 322 314 312 311 315
38 44 51 57 65 72 76 79 80 85 90 96 102 102 90 101 113 113 111 119 120 124 127 123 118 115 105 103 105 95 91 76 70 63 37 10 354 331 328 325 326 322 319
60 68 73 79 85 88 88 86 95 95 95 95 96 100 105 103 106 108 116 110 107 116 116 107 111 112 116 103 88 76 74 71 56 39 359 350 340 339 340 337 332 325 319
73 77 78 80 82 84 89 91 91 93 92 93 99 97 98 103 108 106 102 112 104 104 111 103 100 96 96 90 83 77 62 42 8 2 345 332 333 339 344 342 337 331 325
76 73 78 82 86 91 93 94 93 89 88 90 93 93 94 101 99 98 107 98 97 97 94 90 90 91 79 67 53 41 30 35 18 345 330 335 340 348 349 331 321 323 324
77 82 83 82 84 82 87 92 92 93 91 88 84 80 82 87 83 85 88 85 92 94 93 95 91 86 80 69 47 17 329 278 310 319 339 352 342 329 315 309 316 319 319
69 74 77 82 81 80 80 82 85 85 85 83 80 76 74 78 86 83 84 84 84 86 85 77 74 67 64 56 21 302 292 307 346 5 1 355 341 335 313 309 303 304 315
75 82 80 78 80 85 84 81 82 83 81 76 73 65 58 72 78 83 81 84 93 101 111 104 88 86 70 47 1 320 336 9 12 10 2 351 350 342 328 313 308 315 325
78 75 83 91 91 92 88 85 79 73 72 73 74 73 68 70 68 68 70 73 77 83 98 104 79 73 48 21 325 357 4 350 348 353 351 348 342 330 332 332 334 341 346
82 86 90 90 91 92 92 90 87 83 82 81 78 72 58 52 55 65 66 60 52 65 40 42 46 40 26 1 2 358 339 338 342 340 334 337 339 335 331 326 332 302 319
86 91 90 93 97 97 100 98 93 91 91 91 93 76 40 17 12 23 41 51 6 350 357 359 358 355 351 353 350 342 335 337 328 328 329 335 333 331 329 322 311 318 326
89 88 94 99 90 85 94 101 108 108 93 74 324 295 328 308 308 312 352 359 348 338 337 341 334 335 337 336 334 331 329 322 322 324 326 326 328 326 317 309 308 313 319
Height
1429 1434 1437 1439 1443 1447 1450 1454 1458 1462 1465 1469 1473 1477 1481 1485 1489 1492 1494 1497 1499 1502 1505 1506 1507 1510 1511 1513 1514 1515 1516 1516 1511 1510 1511 1513 1512 1511 1511 1511 1510 1509 1507
1425 1428 1432 1436 1438 1441 1443 1447 1451 1454 1457 1460 1465 1468 1472 1475 1479 1481 1483 1486 1488 1490 1493 1496 1496 1499 1501 1502 1503 1503 1504 1504 1503 1499 1500 1499 1499 1500 1500 1499 1499 1498 1497
1419 1423 1427 1430 1433 1433 1435 1439 1444 1446 1448 1452 1455 1457 1459 1463 1468 1470 1474 1476 1478 1479 1482 1483 1484 1488 1488 1489 1490 1491 1491 1493 1492 1489 1488 1487 1487 1487 1485 1487 1486 1486 1486
1416 1417 1419 1422 1425 1428 1432 1435 1436 1438 1441 1443 1445 1446 1450 1454 1456 1459 1462 1464 1465 1467 1470 1471 1473 1475 1475 1477 1479 1479 1480 1480 1479 1478 1477 1476 1475 1475 1475 1473 1472 1472 1473
1418 1414 1411 1414 1416 1420 1423 1425 1428 1430 1431 1434 1437 1438 1440 1442 1443 1445 1449 1452 1455 1457 1458 1459 1461 1462 1463 1466 1468 1468 1469 1469 1468 1467 1464 1462 1462 1461 1460 1461 1459 1459 1460
1417 1413 1411 1409 1409 1411 1412 1415 1419 1420 1422 1426 1426 1428 1431 1430 1431 1435 1439 1441 1444 1445 1445 1447 1449 1451 1453 1456 1459 1459 1459 1457 1456 1455 1452 1449 1447 1446 1448 1448 1447 1447 1447
1410 1410 1411 1410 1407 1404 1404 1405 1406 1408 1412 1413 1415 1418 1418 1420 1422 1427 1430 1433 1434 1434 1435 1437 1438 1440 1443 1446 1447 1447 1446 1444 1442 1443 1440 1438 1435 1433 1436 1436 1438 1438 1439
1402 1402 1402 1401 1403 1403 1397 1396 1396 1397 1398 1400 1402 1405 1408 1409 1412 1415 1420 1424 1425 1425 1426 1426 1428 1429 1432 1434 1435 1435 1433 1431 1429 1428 1428 1422 1421 1424 1427 1429 1430 1434 1436
1395 1393 1393 1392 1392 1393 1394 1390 1387 1388 1388 1389 1391 1394 1395 1397 1401 1403 1408 1411 1414 1414 1413 1414 1416 1418 1420 1422 1423 1421 1419 1417 1414 1413 1412 1411 1413 1417 1419 1424 1427 1433 1430
1393 1389 1386 1383 1381 1381 1380 1379 1378 1377 1376 1379 1381 1382 1382 1385 1386 1390 1395 1397 1400 1401 1402 1403 1404 1406 1406 1409 1409 1407 1404 1402 1403 1406 1411 1409 1411 1415 1419 1423 1426 1428 1435
1390 1385 1381 1376 1373 1370 1368 1366 1366 1366 1366 1367 1369 1371 1373 1376 1377 1379 1383 1386 1388 1390 1391 1391 1391 1392 1394 1395 1395 1396 1398 1397 1399 1398 1406 1411 1414 1420 1417 1424 1423 1426 1428
1385 1381 1375 1371 1367 1362 1359 1357 1356 1356 1357 1357 1359 1361 1363 1365 1367 1369 1372 1375 1376 1377 1377 1378 1379 1381 1383 1385 1386 1389 1393 1395 1394 1398 1403 1406 1415 1417 1417 1420 1422 1423 1424
1380 1375 1372 1368 1362 1357 1354 1353 1351 1350 1350 1350 1351 1353 1355 1355 1357 1357 1359 1362 1364 1366 1366 1366 1371 1377 1388 1383 1383 1396 1390 1391 1404 1404 1404 1404 1410 1413 1414 1417 1417 1418 1420
1381 1377 1373 1367 1362 1355 1352 1350 1349 1347 1346 1348 1347 1344 1347 1347 1350 1352 1351 1353 1353 1360 1362 1377 1381 1373 1380 1397 1396 1397 1387 1388 1397 1403 1410 1409 1409 1410 1412 1411 1411 1413 1415
1384 1380 1377 1372 1366 1359 1354 1351 1351 1350 1349 1348 1350 1355 1346 1358 1345 1358 1363 1364 1365 1362 1378 1365 1379 1400 1376 1387 1388 1390 1392 1396 1396 1402 1408 1410 1408 1408 1408 1409 1408 1409 1409
1389 1386 1383 1379 1376 1369 1365 1359 1360 1359 1356 1357 1358 1366 1359 1374 1355 1365 1366 1369 1370 1377 1385 1379 1380 1383 1396 1391 1395 1389 1392 1399 1398 1401 1408 1408 1405 1406 1405 1406 1405 1404 1405
1395 1392 1389 1386 1383 1377 1376 1374 1370 1370 1368 1365 1367 1372 1375 1385 1377 1366 1378 1376 1373 1380 1395 1390 1398 1387 1390 1394 1393 1399 1399 1396 1399 1400 1406 1407 1407 1404 1403 1403 1403 1402 1403
1401 1399 1395 1395 1394 1391 1386 1384 1384 1380 1378 1377 1374 1378 1385 1374 1391 1386 1380 1380 1378 1392 1398 1388 1400 1394 1396 1394 1398 1399 1400 1399 1399 1401 1405 1407 1406 1403 1399 1401 1401 1402 1402
1405 1406 1402 1400 1401 1399 1396 1393 1391 1391 1390 1389 1388 1382 1389 1392 1390 1386 1391 1385 1385 1393 1397 1391 1396 1398 1399 1396 1402 1401 1401 1399 1403 1404 1405 1403 1403 1401 1398 1399 1399 1400 1399
1410 1410 1409 1407 1407 1408 1405 1401 1398 1397 1398 1395 1392 1392 1393 1395 1395 1394 1395 1386 1388 1395 1396 1400 1399 1400 1398 1401 1400 1403 1404 1404 1403 1404 1402 1401 1402 1400 1397 1398 1397 1397 1398
1415 1414 1414 1412 1411 1410 1411 1409 1406 1404 1402 1399 1397 1399 1400 1400 1402 1400 1396 1393 1395 1400 1402 1402 1403 1402 1402 1403 1404 1406 1405 1404 1403 1401 1400 1398 1400 1397 1396 1396 1396 1397 1394
1419 1417 1417 1415 1414 1413 1413 1413 1411 1410 1408 1405 1405 1406 1405 1404 1403 1403 1399 1398 1403 1406 1407 1407 1405 1404 1404 1403 1404 1405 1405 1401 1401 1399 1399 1400 1395 1393 1394 1395 1394 1393 1392
1422 1421 1419 1418 1417 1417 1416 1416 1415 1413 1412 1411 1411 1410 1410 1409 1407 1405 1403 1404 1407 1408 1409 1408 1405 1404 1405 1405 1404 1402 1400 1400 1401 1400 1397 1395 1393 1393 1391 1392 1391 1390 1390
1424 1423 1422 1421 1421 1420 1419 1419 1418 1418 1416 1416 1415 1415 1414 1411 1410 1408 1408 1408 1411 1412 1409 1405 1405 1404 1403 1402 1401 1400 1400 1399 1399 1397 1395 1392 1392 1391 1388 1390 1387 1389 1388
1427 1425 1424 1423 1422 1422 1421 1421 1421 1420 1419 1418 1417 1416 1415 1413 1410 1409 1410 1412 1412 1408 1406 1405 1404 1402 1401 1401 1399 1398 1398 1397 1398 1395 1393 1389 1389 1388 1387 1386 1387 1388 1387
1429 1428 1427 1426 1425 1424 1423 1423 1422 1421 1420 1419 1418 1417 1417 1415 1414 1414 1411 1409 1409 1408 1406 1403 1401 1400 1399 1399 1398 1397 1397 1395 1394 1392 1390 1389 1387 1386 1385 1385 1385 1385 1384